1504483200.43,18315,17.19,73146.8,-0.83,-1.51,-1.55,0,*61
1504483201.63,18316,17.19,73150.3,-0.85,-1.59,-1.55,0,*6C
1504483202.84,18317,17.19,73148.3,-0.83,-1.51,-1.55,0,*63
1504483204.05,18318,17.19,73146.0,-0.85,-1.55,-1.55,0,*6E
1504483205.26,18319,17.19,73144.8,-0.85,-1.55,-1.55,0,*6F
1504483206.48,18320,17.19,73150.0,-0.83,-1.55,-1.55,0,*63
1504483207.69,18321,17.19,73146.0,-0.83,-1.55,-1.51,0,*66
1504483208.9,18322,17.19,73144.5,-0.85,-1.59,-1.59,0,*67
1504483210.1,18323,17.19,73144.5,-0.85,-1.55,-1.55,0,*66
1504483211.32,18324,17.19,73146.8,-0.83,-1.55,-1.55,0,*67
1504483212.54,18325,17.19,73146.3,-0.83,-1.55,-1.51,0,*62
1504483213.76,18326,17.19,73146.8,-0.83,-1.55,-1.51,0,*61
1504483214.97,18327,17.19,73146.0,-0.83,-1.55,-1.51,0,*60
1504483216.16,18328,17.19,73148.3,-0.81,-1.55,-1.55,0,*69
1504483217.38,18329,17.19,73144.5,-0.83,-1.55,-1.55,0,*6A
1504483218.6,18330,17.19,73146.8,-0.83,-1.55,-1.55,0,*62
1504483219.8,18331,17.19,73148.3,-0.85,-1.55,-1.59,0,*69
1504483221.02,18332,17.19,73146.0,-0.83,-1.55,-1.51,0,*64
1504483222.24,18333,17.19,73144.8,-0.83,-1.51,-1.51,0,*61
1504483223.45,18334,17.19,73148.0,-0.83,-1.55,-1.55,0,*66
1504483224.67,18335,17.19,73150.5,-0.83,-1.51,-1.51,0,*67
1504483225.88,18336,17.19,73148.0,-0.83,-1.55,-1.55,0,*64
1504483227.1,18337,17.19,73150.3,-0.83,-1.55,-1.55,0,*65
1504483228.31,18338,17.19,73144.5,-0.83,-1.51,-1.51,0,*6A
1504483229.56,18339,17.19,73148.8,-0.83,-1.43,-1.51,0,*68
1504483230.78,18340,17.19,73146.5,-0.83,-1.55,-1.55,0,*65
1504483231.99,18341,17.19,73148.5,-0.83,-1.51,-1.55,0,*60
1504483233.21,18342,17.19,73150.3,-0.83,-1.55,-1.55,0,*67
1504483234.42,18343,17.19,73150.3,-0.83,-1.55,-1.55,0,*66
1504483235.61,18344,17.19,73150.8,-0.81,-1.55,-1.55,0,*63
1504483236.8,18345,17.19,73148.3,-0.81,-1.55,-1.55,0,*62
1504483237.99,18346,17.19,73148.0,-0.81,-1.55,-1.55,0,*61
1504483239.18,18347,17.19,73150.3,-0.81,-1.55,-1.55,0,*60
1504483240.37,18348,17.19,73154.3,-0.81,-1.51,-1.51,0,*6F
1504483241.56,18349,17.19,73152.0,-0.81,-1.51,-1.51,0,*6E
1504483242.77,18350,17.19,73154.3,-0.83,-1.51,-1.55,0,*60
1504483243.98,18351,17.19,73148.5,-0.83,-1.55,-1.55,0,*65
1504483245.2,18352,17.19,73146.0,-0.83,-1.59,-1.67,0,*6B
1504483246.41,18353,17.19,73144.0,-0.85,-1.75,-1.75,0,*61
1504483247.64,18354,17.19,73142.3,-0.83,-1.71,-1.71,0,*60
1504483248.87,18355,17.19,73138.0,-0.83,-1.71,-1.79,0,*69
1504483250.1,18356,17.19,73140.3,-0.83,-1.71,-1.67,0,*65
1504483251.31,18357,17.19,73140.5,-0.85,-1.63,-1.71,0,*66
1504483252.52,18358,17.19,73144.3,-0.83,-1.59,-1.59,0,*6C
1504483253.73,18359,17.19,73142.5,-0.83,-1.59,-1.59,0,*6D
1504483254.95,18360,17.19,73146.5,-0.83,-1.67,-1.59,0,*6A
1504483256.17,18361,17.19,73144.8,-0.83,-1.67,-1.67,0,*66
1504483257.4,18362,17.19,73144.0,-0.83,-1.71,-1.71,0,*65
1504483258.62,18363,17.19,73144.5,-0.83,-1.79,-1.79,0,*64
1504483259.89,18364,17.19,73142.3,-0.85,-2.07,-2.07,0,*65
1504483261.09,18365,17.19,73138.0,-0.85,-2.19,-2.19,0,*64
1504483262.3,18366,17.19,73134.5,-0.85,-2.23,-2.19,0,*6E
1504483263.57,18367,17.19,73136.0,-0.85,-2.11,-2.07,0,*61
1504483264.81,18368,17.19,73138.0,-0.85,-1.83,-1.75,0,*60
1504483266.02,18369,17.19,73140.5,-0.89,-1.75,-1.79,0,*68
1504483267.24,18370,17.19,73136.0,-0.89,-1.75,-1.67,0,*6F
1504483268.45,18371,17.19,73136.0,-0.85,-1.63,-1.63,0,*61
1504483269.66,18372,17.19,73136.3,-0.85,-1.63,-1.71,0,*61
1504483270.87,18373,17.19,73144.0,-0.85,-1.63,-1.63,0,*63
1504483272.08,18374,17.19,73140.8,-0.85,-1.63,-1.63,0,*64
1504483273.29,18375,17.19,73144.8,-0.85,-1.63,-1.63,0,*65
1504483274.5,18376,17.19,73138.5,-0.89,-1.67,-1.67,0,*6A
1504483275.71,18377,17.19,73142.5,-0.89,-1.67,-1.67,0,*6B
1504483276.93,18378,17.19,73140.0,-0.89,-1.67,-1.67,0,*64
1504483278.14,18379,17.19,73138.5,-0.89,-1.67,-1.67,0,*65
1504483279.35,18380,17.19,73138.8,-0.85,-1.63,-1.63,0,*6F
1504483280.56,18381,17.19,73138.3,-0.85,-1.63,-1.63,0,*6E
1504483281.77,18382,17.19,73140.0,-0.85,-1.63,-1.63,0,*6D
1504483282.98,18383,17.19,73140.0,-0.83,-1.59,-1.55,0,*66
1504483284.19,18384,17.19,73144.5,-0.85,-1.63,-1.59,0,*62
1504483285.4,18385,17.19,73144.3,-0.85,-1.63,-1.59,0,*63
1504483286.6,18386,17.19,73146.0,-0.85,-1.59,-1.59,0,*69
1504483287.8,18387,17.19,73144.0,-0.85,-1.59,-1.55,0,*64
1504483289.02,18388,17.19,73142.3,-0.85,-1.71,-1.71,0,*67
1504483290.26,18389,17.19,73142.3,-0.85,-1.75,-1.87,0,*6B
1504483291.52,18390,17.19,73140.3,-0.85,-1.87,-1.87,0,*6E
1504483292.73,18391,17.19,73144.8,-0.85,-1.75,-1.75,0,*6F
1504483293.94,18392,17.19,73146.8,-0.85,-1.63,-1.75,0,*6B
1504483295.18,18393,17.19,73150.5,-0.85,-1.83,-1.75,0,*64
1504483296.44,18394,17.19,73148.3,-0.89,-1.87,-1.91,0,*61
1504483297.65,18395,17.19,73140.3,-0.89,-2.23,-2.15,0,*62
1504483298.86,18396,17.19,73134.3,-0.89,-2.35,-2.35,0,*64
1504483300.07,18397,17.19,73134.3,-0.89,-2.23,-2.27,0,*61
1504483301.26,18398,17.19,73140.3,-0.91,-2.15,-2.15,0,*63
1504483302.53,18399,17.19,73142.0,-0.89,-2.03,-1.99,0,*6B
1504483303.79,18400,17.19,73142.8,-0.89,-2.11,-2.11,0,*6C
1504483305.01,18401,17.19,73134.0,-0.91,-2.15,-2.11,0,*60
1504483306.22,18402,17.19,73132.8,-0.91,-2.15,-2.11,0,*63
1504483307.48,18403,17.19,73134.3,-0.93,-2.03,-1.95,0,*68
1504483308.75,18404,17.19,73132.8,-0.93,-1.83,-1.83,0,*63
1504483309.99,18405,17.19,73134.8,-0.93,-1.79,-1.83,0,*67
1504483311.23,18406,17.13,73138.8,-0.93,-1.79,-1.83,0,*64
1504483312.49,18407,17.19,73144.8,-0.93,-1.83,-1.91,0,*63
1504483313.76,18408,17.19,73136.8,-0.93,-1.83,-1.91,0,*6C
1504483315.0,18409,17.19,73138.3,-0.93,-2.07,-2.15,0,*6D
1504483316.22,18410,17.19,73126.3,-0.95,-2.15,-2.07,0,*63
1504483317.49,18411,17.19,73130.3,-0.93,-2.07,-2.07,0,*67
1504483318.76,18412,17.19,73128.5,-0.93,-1.91,-1.91,0,*64
1504483320.0,18413,17.19,73132.5,-0.93,-1.83,-1.79,0,*60
1504483321.22,18414,17.19,73138.3,-0.93,-1.79,-1.71,0,*6A
1504483322.44,18415,17.19,73136.5,-0.93,-1.71,-1.71,0,*63
1504483323.66,18416,17.19,73136.8,-0.93,-1.79,-1.71,0,*68
1504483324.86,18417,17.19,73142.0,-0.95,-1.71,-1.71,0,*67
1504483326.05,18418,17.19,73142.5,-0.95,-1.63,-1.71,0,*6B
1504483327.27,18419,17.19,73138.0,-0.93,-1.67,-1.71,0,*68
1504483328.49,18420,17.19,73140.8,-0.93,-1.67,-1.67,0,*65
1504483329.71,18421,17.19,73142.3,-0.93,-1.67,-1.67,0,*64
1504483330.89,18422,17.19,73140.5,-0.91,-1.63,-1.63,0,*65
1504483332.08,18423,17.19,73138.3,-0.91,-1.63,-1.63,0,*64
1504483333.28,18424,17.19,73140.3,-0.91,-1.67,-1.67,0,*63
1504483334.47,18425,17.19,73142.8,-0.91,-1.67,-1.67,0,*62
1504483335.69,18426,17.19,73130.8,-0.93,-1.71,-1.67,0,*64
1504483336.92,18427,17.19,73134.0,-0.93,-1.71,-1.67,0,*65
1504483338.11,18428,17.19,73128.8,-0.91,-1.63,-1.63,0,*6F
1504483339.32,18429,17.19,73140.5,-0.89,-1.63,-1.63,0,*67
1504483340.51,18430,17.19,73142.5,-0.91,-1.63,-1.63,0,*66
1504483341.7,18431,17.13,73132.5,-0.91,-1.63,-1.63,0,*67
1504483342.88,18432,17.19,73138.8,-0.91,-1.63,-1.63,0,*64
1504483344.07,18433,17.19,73140.8,-0.91,-1.63,-1.63,0,*65
1504483345.26,18434,17.19,73142.8,-0.91,-1.63,-1.63,0,*62
1504483346.45,18435,17.19,73142.8,-0.91,-1.63,-1.63,0,*63
1504483347.64,18436,17.19,73142.5,-0.91,-1.63,-1.63,0,*60
1504483348.83,18437,17.19,73142.3,-0.91,-1.59,-1.59,0,*61
1504483350.01,18438,17.19,73144.0,-0.91,-1.59,-1.63,0,*67
1504483351.22,18439,17.19,73146.0,-0.89,-1.63,-1.63,0,*66
1504483352.4,18440,17.19,73140.8,-0.91,-1.59,-1.59,0,*61
1504483353.59,18441,17.19,73142.8,-0.91,-1.63,-1.63,0,*60
1504483354.78,18442,17.19,73140.8,-0.91,-1.67,-1.63,0,*67
1504483355.97,18443,17.19,73146.8,-0.91,-1.63,-1.63,0,*62
1504483357.18,18444,17.19,73150.3,-0.89,-1.59,-1.59,0,*6C
1504483358.38,18445,17.19,73150.8,-0.89,-1.63,-1.59,0,*64
1504483359.57,18446,17.19,73148.8,-0.91,-1.59,-1.51,0,*6F
1504483360.78,18447,17.19,73154.8,-0.89,-1.59,-1.63,0,*66
1504483361.99,18448,17.19,73150.8,-0.89,-1.63,-1.63,0,*60
1504483363.17,18449,17.19,73144.5,-0.91,-1.59,-1.59,0,*68
1504483364.36,18450,17.19,73146.5,-0.91,-1.63,-1.59,0,*69
1504483365.56,18451,17.19,73146.8,-0.89,-1.59,-1.59,0,*68
1504483366.74,18452,17.19,73144.5,-0.91,-1.59,-1.63,0,*6B
1504483367.95,18453,17.19,73146.3,-0.89,-1.59,-1.63,0,*63
1504483369.16,18454,17.19,73142.0,-0.89,-1.63,-1.59,0,*64
1504483370.34,18455,17.19,73148.8,-0.91,-1.63,-1.59,0,*6C
1504483371.55,18456,17.19,73152.0,-0.89,-1.63,-1.59,0,*66
1504483372.76,18457,17.19,73148.8,-0.89,-1.63,-1.63,0,*6E
1504483373.97,18458,17.19,73150.0,-0.89,-1.59,-1.63,0,*68
1504483375.18,18459,17.19,73146.8,-0.89,-1.63,-1.63,0,*60
1504483376.39,18460,17.19,73144.5,-0.89,-1.63,-1.63,0,*6A
1504483377.59,18461,17.19,73148.8,-0.89,-1.59,-1.59,0,*6B
1504483378.8,18462,17.19,73144.8,-0.89,-1.63,-1.63,0,*68
1504483380.01,18463,17.19,73142.5,-0.89,-1.63,-1.63,0,*69
1504483381.22,18464,17.19,73144.5,-0.89,-1.63,-1.59,0,*67
1504483382.43,18465,17.19,73148.8,-0.89,-1.63,-1.63,0,*6F
1504483383.64,18466,17.19,73148.3,-0.89,-1.63,-1.63,0,*6C
1504483384.85,18467,17.19,73148.3,-0.89,-1.63,-1.63,0,*6D
1504483386.06,18468,17.19,73148.3,-0.89,-1.67,-1.63,0,*66
1504483387.28,18469,17.19,73150.8,-0.85,-1.71,-1.71,0,*6F
1504483388.49,18470,17.19,73148.8,-0.89,-1.67,-1.67,0,*6B
1504483389.71,18471,17.19,73146.8,-0.89,-1.67,-1.67,0,*6A
1504483390.94,18472,17.19,73146.0,-0.89,-1.79,-1.87,0,*68
1504483392.18,18473,17.19,73142.5,-0.89,-1.87,-1.79,0,*69
1504483393.45,18474,17.19,73146.0,-0.89,-1.87,-1.87,0,*6F
1504483394.66,18475,17.19,73140.8,-0.89,-1.67,-1.67,0,*6E
1504483395.87,18476,17.19,73146.3,-0.89,-1.67,-1.67,0,*6D
1504483397.09,18477,17.19,73144.8,-0.89,-1.67,-1.63,0,*68
1504483398.3,18478,17.19,73146.0,-0.89,-1.67,-1.63,0,*67
1504483399.51,18479,17.19,73142.5,-0.89,-1.67,-1.63,0,*66
1504483400.7,18480,17.19,73144.8,-0.91,-1.67,-1.63,0,*69
1504483401.89,18481,17.19,73144.5,-0.91,-1.67,-1.63,0,*68
1504483403.09,18482,17.19,73148.8,-0.89,-1.59,-1.63,0,*6F
1504483404.31,18483,17.19,73148.3,-0.89,-1.63,-1.63,0,*67
1504483405.52,18484,17.19,73146.3,-0.89,-1.63,-1.63,0,*60
1504483406.73,18485,17.19,73144.0,-0.89,-1.75,-1.75,0,*61
1504483407.94,18486,17.19,73140.5,-0.89,-1.79,-1.79,0,*62
1504483409.15,18487,17.13,73136.0,-0.89,-1.67,-1.67,0,*63
1504483410.34,18488,17.19,73138.3,-0.91,-1.67,-1.67,0,*65
1504483411.53,18489,17.19,73138.3,-0.91,-1.63,-1.59,0,*6D
1504483412.72,18490,17.19,73140.5,-0.91,-1.63,-1.67,0,*68
1504483413.93,18491,17.19,73142.3,-0.89,-1.63,-1.63,0,*64
1504483415.14,18492,17.19,73140.8,-0.89,-1.63,-1.59,0,*6E
1504483416.35,18493,17.19,73144.0,-0.89,-1.63,-1.63,0,*66
1504483417.56,18494,17.19,73140.3,-0.89,-1.59,-1.63,0,*68
1504483418.77,18495,17.19,73144.0,-0.89,-1.63,-1.63,0,*60
1504483419.98,18496,17.19,73146.0,-0.89,-1.63,-1.63,0,*63
1504483421.19,18497,17.19,73146.0,-0.89,-1.63,-1.63,0,*62
1504483422.39,18498,17.19,73142.0,-0.89,-1.59,-1.59,0,*6D
1504483423.6,18499,17.19,73140.3,-0.89,-1.63,-1.63,0,*6C
1504483424.81,18500,17.19,73140.0,-0.89,-1.63,-1.63,0,*6D
1504483426.02,18501,17.19,73140.8,-0.89,-1.63,-1.63,0,*6C
1504483427.23,18502,17.19,73140.3,-0.89,-1.63,-1.63,0,*6F
1504483428.44,18503,17.19,73140.0,-0.89,-1.63,-1.59,0,*67
1504483429.64,18504,17.19,73140.8,-0.89,-1.59,-1.63,0,*60
1504483430.85,18505,17.19,73142.3,-0.89,-1.63,-1.59,0,*61
1504483432.06,18506,17.19,73150.5,-0.89,-1.63,-1.63,0,*6B
1504483433.27,18507,17.19,73146.3,-0.89,-1.63,-1.63,0,*6A
1504483434.48,18508,17.19,73138.5,-0.89,-1.63,-1.63,0,*65
1504483435.68,18509,17.19,73136.8,-0.85,-1.59,-1.59,0,*68
1504483436.89,18510,17.19,73140.0,-0.85,-1.59,-1.59,0,*60
1504483438.09,18511,17.19,73142.5,-0.85,-1.59,-1.59,0,*61
1504483439.29,18512,17.19,73144.8,-0.85,-1.59,-1.59,0,*62
1504483440.5,18513,17.13,73138.5,-0.85,-1.55,-1.59,0,*6F
1504483441.7,18514,17.19,73134.8,-0.89,-1.63,-1.59,0,*61
1504483442.91,18515,17.19,73136.8,-0.89,-1.63,-1.59,0,*60
1504483444.12,18516,17.19,73138.8,-0.89,-1.63,-1.63,0,*6A
1504483445.33,18517,17.19,73136.3,-0.89,-1.67,-1.63,0,*6F
1504483446.55,18518,17.19,73140.8,-0.89,-1.75,-1.67,0,*67
1504483447.76,18519,17.19,73140.8,-0.85,-1.63,-1.63,0,*69
1504483448.96,18520,17.19,73142.3,-0.85,-1.63,-1.59,0,*6A
1504483450.17,18521,17.19,73144.5,-0.85,-1.63,-1.59,0,*6B
1504483451.38,18522,17.19,73146.0,-0.85,-1.63,-1.63,0,*61
1504483452.6,18523,17.19,73144.5,-0.85,-1.71,-1.71,0,*60
1504483453.81,18524,17.19,73144.0,-0.85,-1.75,-1.75,0,*67
1504483455.07,18525,17.19,73144.5,-0.85,-1.83,-1.83,0,*66
1504483456.28,18526,17.19,73142.8,-0.89,-1.79,-1.79,0,*69
1504483457.49,18527,17.19,73138.8,-0.89,-1.67,-1.75,0,*6B
1504483458.71,18528,17.19,73126.8,-0.89,-1.67,-1.67,0,*67
1504483459.9,18529,17.19,73132.8,-0.91,-1.79,-1.79,0,*6F
1504483461.11,18530,17.19,73136.5,-0.89,-1.79,-1.79,0,*6E
1504483462.35,18531,17.19,73134.5,-0.91,-1.87,-1.87,0,*66
1504483463.59,18532,17.19,73132.3,-0.89,-1.79,-1.87,0,*6D
1504483464.78,18533,17.19,73140.3,-0.91,-1.75,-1.79,0,*68
1504483465.99,18534,17.13,73136.8,-0.89,-1.67,-1.75,0,*69
1504483467.18,18535,17.19,73136.3,-0.91,-1.67,-1.67,0,*62
1504483468.37,18536,17.19,73142.0,-0.91,-1.67,-1.75,0,*62
1504483469.59,18537,17.13,73136.5,-0.89,-1.67,-1.67,0,*69
1504483470.78,18538,17.19,73138.5,-0.91,-1.75,-1.67,0,*6C
1504483472.0,18539,17.19,73144.0,-0.89,-1.75,-1.67,0,*64
1504483473.19,18540,17.19,73146.3,-0.91,-1.67,-1.67,0,*60
1504483474.4,18541,17.19,73134.5,-0.89,-1.67,-1.67,0,*68
1504483475.6,18542,17.19,73138.8,-0.91,-1.75,-1.67,0,*61
1504483476.81,18543,17.19,73140.3,-0.89,-1.67,-1.67,0,*6A
1504483478.02,18544,17.19,73142.8,-0.89,-1.67,-1.67,0,*6D
1504483479.24,18545,17.19,73144.5,-0.89,-1.63,-1.67,0,*68
1504483480.45,18546,17.19,73142.5,-0.89,-1.67,-1.67,0,*6F
1504483481.67,18547,17.19,73142.5,-0.89,-1.75,-1.67,0,*6D
1504483482.88,18548,17.19,73142.5,-0.89,-1.67,-1.67,0,*61
1504483484.1,18549,17.19,73140.8,-0.91,-1.79,-1.87,0,*68
1504483485.31,18550,17.19,73144.8,-0.89,-1.79,-1.79,0,*68
1504483486.52,18551,17.19,73142.8,-0.89,-1.79,-1.79,0,*69
1504483487.71,18552,17.13,73140.5,-0.91,-1.75,-1.79,0,*6F
1504483488.92,18553,17.19,73140.0,-0.89,-1.67,-1.67,0,*6B
1504483490.13,18554,17.19,73142.3,-0.89,-1.63,-1.63,0,*6C
1504483491.34,18555,17.19,73144.0,-0.89,-1.63,-1.63,0,*6D
1504483492.55,18556,17.19,73144.3,-0.89,-1.63,-1.63,0,*6E
1504483493.76,18557,17.19,73144.0,-0.89,-1.63,-1.63,0,*6F
1504483494.95,18558,17.19,73146.8,-0.91,-1.63,-1.63,0,*69
1504483496.14,18559,17.19,73142.3,-0.91,-1.67,-1.63,0,*6C
1504483497.34,18560,17.19,73136.5,-0.91,-1.67,-1.67,0,*62
1504483498.55,18561,17.19,73138.8,-0.89,-1.75,-1.75,0,*6A
1504483499.76,18562,17.19,73140.0,-0.89,-1.75,-1.67,0,*6A
1504483500.97,18563,17.13,73140.0,-0.89,-1.67,-1.67,0,*68
1504483502.17,18564,17.19,73142.0,-0.91,-1.67,-1.75,0,*65
1504483503.36,18565,17.19,73142.0,-0.91,-1.75,-1.79,0,*6B
1504483504.55,18566,17.13,73132.3,-0.91,-1.79,-1.67,0,*6B
1504483505.74,18567,17.19,73144.5,-0.91,-1.75,-1.67,0,*66
1504483506.93,18568,17.19,73142.3,-0.91,-1.75,-1.75,0,*6A
1504483508.13,18569,17.19,73138.5,-0.91,-1.67,-1.67,0,*6B
1504483509.34,18570,17.19,73140.0,-0.89,-1.75,-1.75,0,*6A
1504483510.55,18571,17.19,73144.3,-0.89,-1.67,-1.75,0,*68
1504483511.74,18572,17.19,73140.5,-0.91,-1.75,-1.67,0,*62
1504483512.94,18573,17.19,73144.5,-0.91,-1.67,-1.67,0,*60
1504483514.13,18574,17.19,73144.8,-0.91,-1.67,-1.67,0,*67
1504483515.31,18575,17.19,73146.0,-0.91,-1.63,-1.59,0,*6F
1504483516.52,18576,17.19,73146.3,-0.89,-1.59,-1.63,0,*65
1504483517.73,18577,17.13,73140.8,-0.89,-1.63,-1.63,0,*6D
1504483518.94,18578,17.19,73144.5,-0.89,-1.63,-1.63,0,*62
1504483520.13,18579,17.19,73144.8,-0.91,-1.75,-1.75,0,*6A
1504483521.35,18580,17.13,73142.5,-0.91,-1.79,-1.87,0,*6D
1504483522.56,18581,17.19,73140.3,-0.89,-1.79,-1.75,0,*68
1504483523.75,18582,17.19,73144.0,-0.91,-1.67,-1.67,0,*6E
1504483524.96,18583,17.13,73140.8,-0.89,-1.67,-1.67,0,*66
1504483526.16,18584,17.19,73146.5,-0.91,-1.67,-1.67,0,*68
1504483527.37,18585,17.13,73142.8,-0.89,-1.67,-1.67,0,*60
1504483528.57,18586,17.13,73144.0,-0.91,-1.67,-1.67,0,*6A
1504483529.76,18587,17.13,73146.5,-0.91,-1.67,-1.67,0,*6B
1504483530.98,18588,17.13,73138.5,-0.89,-1.67,-1.67,0,*6D
1504483532.19,18589,17.13,73142.0,-0.89,-1.75,-1.67,0,*6F
1504483533.38,18590,17.19,73146.3,-0.91,-1.67,-1.67,0,*6D
1504483534.59,18591,17.19,73146.5,-0.89,-1.63,-1.63,0,*65
1504483535.78,18592,17.19,73144.0,-0.91,-1.63,-1.63,0,*6F
1504483536.99,18593,17.19,73144.5,-0.89,-1.63,-1.63,0,*67
1504483538.2,18594,17.13,73150.0,-0.89,-1.63,-1.63,0,*60
1504483539.41,18595,17.19,73140.0,-0.89,-1.63,-1.63,0,*61
1504483540.62,18596,17.19,73144.5,-0.89,-1.67,-1.63,0,*66
1504483541.83,18597,17.19,73142.0,-0.89,-1.59,-1.59,0,*63
1504483543.01,18598,17.13,73138.5,-0.91,-1.59,-1.63,0,*6C
1504483544.22,18599,17.13,73140.3,-0.89,-1.63,-1.63,0,*6D
1504483545.43,18600,17.13,73140.0,-0.89,-1.59,-1.59,0,*6E
1504483546.63,18601,17.19,73140.5,-0.89,-1.59,-1.63,0,*66
1504483547.84,18602,17.13,73142.0,-0.89,-1.59,-1.59,0,*6C
1504483549.04,18603,17.19,73148.8,-0.85,-1.55,-1.59,0,*6D
1504483550.25,18604,17.19,73146.8,-0.85,-1.55,-1.55,0,*66
1504483551.45,18605,17.19,73150.3,-0.89,-1.59,-1.59,0,*6B
1504483552.66,18606,17.19,73146.3,-0.89,-1.59,-1.63,0,*61
1504483553.86,18607,17.19,73148.0,-0.89,-1.59,-1.59,0,*69
1504483555.07,18608,17.13,73144.8,-0.89,-1.63,-1.63,0,*66
1504483556.28,18609,17.13,73140.5,-0.89,-1.63,-1.63,0,*67
1504483557.49,18610,17.19,73144.3,-0.89,-1.63,-1.63,0,*6F
1504483558.7,18611,17.13,73142.8,-0.89,-1.59,-1.63,0,*67
1504483559.91,18612,17.19,73150.8,-0.89,-1.63,-1.59,0,*64
1504483561.09,18613,17.19,73150.5,-0.91,-1.63,-1.59,0,*6C
1504483562.3,18614,17.13,73144.3,-0.89,-1.63,-1.59,0,*62
1504483563.5,18615,17.13,73146.0,-0.85,-1.59,-1.55,0,*6A
1504483564.71,18616,17.13,73148.3,-0.85,-1.55,-1.59,0,*69
1504483565.92,18617,17.19,73146.5,-0.85,-1.55,-1.59,0,*68
1504483567.13,18618,17.13,73146.0,-0.83,-1.55,-1.55,0,*6D
1504483568.34,18619,17.19,73150.8,-0.89,-1.63,-1.63,0,*66
1504483569.56,18620,17.13,73146.5,-0.83,-1.51,-1.55,0,*62
1504483570.76,18621,17.19,73150.0,-0.85,-1.59,-1.55,0,*6D
1504483571.97,18622,17.19,73150.0,-0.85,-1.55,-1.55,0,*62
1504483573.17,18623,17.13,73148.8,-0.85,-1.55,-1.59,0,*6F
1504483574.38,18624,17.19,73152.0,-0.85,-1.59,-1.55,0,*68
1504483575.58,18625,17.13,73148.3,-0.85,-1.59,-1.59,0,*65
1504483576.79,18626,17.13,73150.8,-0.83,-1.55,-1.59,0,*6C
1504483578.01,18627,17.13,73150.0,-0.85,-1.71,-1.71,0,*67
1504483579.26,18628,17.13,73146.3,-0.83,-1.83,-1.79,0,*6B
1504483580.51,18629,17.19,73148.3,-0.83,-1.79,-1.83,0,*6A
1504483581.77,18630,17.19,73150.3,-0.85,-1.83,-1.83,0,*61
1504483583.03,18631,17.19,73148.3,-0.85,-1.95,-1.99,0,*6C
1504483584.3,18632,17.19,73150.8,-0.89,-2.11,-2.03,0,*6C
1504483585.57,18633,17.13,73146.3,-0.85,-2.07,-2.07,0,*62
1504483586.83,18634,17.13,73148.3,-0.85,-1.95,-1.99,0,*69
1504483588.02,18635,17.19,73150.5,-0.91,-1.79,-1.79,0,*61
1504483589.24,18636,17.13,73148.0,-0.89,-1.67,-1.67,0,*6B
1504483590.43,18637,17.13,73148.8,-0.91,-1.67,-1.67,0,*63
1504483591.62,18638,17.19,73148.5,-0.91,-1.67,-1.67,0,*6C
1504483592.84,18639,17.13,73150.3,-0.89,-1.63,-1.67,0,*60
1504483594.03,18640,17.13,73148.8,-0.91,-1.63,-1.67,0,*67
1504483595.24,18641,17.13,73148.5,-0.89,-1.63,-1.67,0,*6F
1504483596.46,18642,17.19,73154.5,-0.89,-1.63,-1.67,0,*6C
1504483597.67,18643,17.13,73150.5,-0.89,-1.63,-1.75,0,*6E
1504483598.88,18644,17.13,73150.5,-0.89,-1.75,-1.67,0,*6D
1504483600.09,18645,17.13,73154.5,-0.89,-1.75,-1.75,0,*6F
1504483601.3,18646,17.13,73152.8,-0.89,-1.75,-1.75,0,*6C
1504483602.54,18647,17.19,73156.3,-0.91,-1.87,-1.87,0,*64
1504483603.79,18648,17.19,73156.8,-0.91,-2.11,-2.03,0,*68
1504483605.02,18649,17.19,73158.0,-0.91,-2.11,-2.23,0,*6B
1504483606.23,18650,17.13,73154.8,-0.89,-2.15,-2.15,0,*6B
1504483607.44,18651,17.13,73154.5,-0.93,-2.27,-2.31,0,*66
1504483608.63,18652,17.19,73150.8,-0.91,-2.23,-2.27,0,*64
1504483609.87,18653,17.13,73144.3,-0.89,-2.03,-2.23,0,*6A
1504483611.13,18654,17.13,73140.5,-0.89,-2.11,-2.11,0,*6F
1504483612.38,18655,17.19,73142.5,-0.91,-2.03,-2.11,0,*64
1504483613.62,18656,17.13,73142.3,-0.91,-2.03,-2.03,0,*64
1504483614.89,18657,17.13,73144.0,-0.93,-2.03,-2.07,0,*63
1504483616.14,18658,17.13,73142.3,-0.95,-2.03,-2.03,0,*6E
1504483617.4,18659,17.19,73142.5,-0.93,-1.83,-1.95,0,*6E
1504483618.64,18660,17.19,73136.0,-0.95,-1.83,-1.91,0,*66
1504483619.89,18661,17.13,73132.5,-0.95,-1.83,-1.91,0,*67
1504483621.13,18662,17.13,73134.3,-0.93,-1.79,-1.83,0,*64
1504483622.36,18663,17.13,73136.5,-0.95,-1.91,-1.91,0,*66
1504483623.63,18664,17.19,73134.0,-0.93,-1.83,-1.91,0,*64
1504483624.87,18665,17.13,73132.3,-0.95,-1.91,-1.83,0,*63
1504483626.14,18666,17.13,73134.3,-0.93,-1.83,-1.83,0,*65
1504483627.38,18667,17.13,73134.0,-0.93,-1.71,-1.83,0,*69
1504483628.6,18668,17.19,73136.5,-0.93,-1.79,-1.79,0,*6B
1504483629.8,18669,17.19,73142.5,-0.95,-1.71,-1.79,0,*64
1504483631.01,18670,17.13,73138.5,-0.93,-1.79,-1.71,0,*6A
1504483632.24,18671,17.13,73138.8,-0.93,-1.71,-1.71,0,*63
1504483633.46,18672,17.13,73140.8,-0.93,-1.71,-1.71,0,*60
1504483634.68,18673,17.13,73148.0,-0.93,-1.79,-1.71,0,*69
1504483635.9,18674,17.13,73148.5,-0.93,-1.71,-1.71,0,*66
1504483637.09,18675,17.13,73150.3,-0.95,-1.79,-1.79,0,*61
1504483638.35,18676,17.13,73148.5,-0.93,-1.91,-1.95,0,*60
1504483639.59,18677,17.13,73148.3,-0.95,-1.95,-2.03,0,*6F
1504483640.78,18678,17.13,73146.5,-0.95,-2.27,-2.31,0,*6B
1504483641.99,18679,17.13,73140.5,-0.93,-2.39,-2.43,0,*66
1504483643.21,18680,17.13,73140.5,-0.95,-2.43,-2.51,0,*68
1504483644.4,18681,17.13,73148.3,-0.95,-2.43,-2.43,0,*6A
1504483645.61,18682,17.19,73148.5,-0.97,-2.35,-2.31,0,*6F
1504483646.8,18683,17.13,73146.0,-0.95,-2.15,-2.19,0,*64
1504483648.05,18684,17.13,73140.5,-0.99,-2.03,-2.03,0,*63
1504483649.31,18685,17.13,73146.5,-0.97,-1.87,-1.95,0,*6F
1504483650.55,18686,17.19,73148.0,-0.99,-1.91,-1.91,0,*61
1504483651.79,18687,17.13,73146.5,-0.99,-1.91,-1.91,0,*60
1504483653.06,18688,17.13,73150.8,-0.97,-2.07,-2.07,0,*61
1504483654.27,18689,17.13,73148.0,-0.97,-2.35,-2.43,0,*61
1504483655.46,18690,17.13,73144.8,-0.99,-2.27,-2.39,0,*69
1504483656.68,18691,17.13,73144.3,-0.97,-2.31,-2.31,0,*69
1504483657.87,18692,17.13,73144.8,-0.99,-2.27,-2.35,0,*67
1504483659.14,18693,17.13,73144.0,-0.97,-2.11,-2.11,0,*6B
1504483660.38,18694,17.13,73144.0,-0.99,-2.03,-2.03,0,*62
1504483661.63,18695,17.13,73140.8,-0.97,-2.07,-2.19,0,*62
1504483662.82,18696,17.19,73142.5,-0.99,-2.15,-2.15,0,*60
1504483664.04,18697,17.13,73138.5,-0.99,-2.11,-2.15,0,*65
1504483665.26,18698,17.13,73138.8,-0.99,-2.11,-2.15,0,*6A
1504483666.54,18699,17.13,73138.0,-1.01,-2.03,-2.11,0,*5C
1504483667.73,18700,17.13,73136.0,-0.99,-2.15,-2.15,0,*6E
1504483668.92,18701,17.13,73132.8,-0.99,-2.23,-2.23,0,*6F
1504483670.1,18702,17.13,73132.5,-0.99,-2.23,-2.27,0,*68
1504483671.36,18703,17.19,73130.5,-1.01,-2.11,-2.15,0,*59
1504483672.64,18704,17.13,73120.0,-1.01,-2.03,-1.99,0,*5A
1504483673.91,18705,17.13,73128.0,-1.01,-1.91,-1.91,0,*5B
1504483675.18,18706,17.19,73130.5,-1.01,-1.91,-1.87,0,*5F
1504483676.46,18707,17.19,73130.8,-1.01,-1.87,-1.91,0,*5E
1504483677.71,18708,17.13,73120.3,-1.01,-1.87,-1.79,0,*57
1504483678.98,18709,17.13,73122.5,-1.01,-1.87,-1.87,0,*57
1504483680.23,18710,17.13,73128.3,-0.99,-1.87,-1.87,0,*6F
1504483681.47,18711,17.13,73128.3,-0.99,-1.87,-1.87,0,*6E
1504483682.68,18712,17.19,73138.5,-0.97,-1.75,-1.75,0,*63
1504483683.87,18713,17.13,73132.3,-0.99,-1.79,-1.79,0,*6C
1504483685.07,18714,17.19,73136.3,-0.99,-1.79,-1.79,0,*6B
1504483686.26,18715,17.13,73128.8,-0.99,-1.75,-1.79,0,*66
1504483687.45,18716,17.13,73124.3,-0.99,-1.75,-1.79,0,*65
1504483688.64,18717,17.13,73130.8,-0.99,-1.79,-1.79,0,*68
1504483689.85,18718,17.13,73138.8,-0.97,-1.75,-1.75,0,*69
1504483691.04,18719,17.13,73128.5,-0.99,-1.79,-1.79,0,*66
1504483692.26,18720,17.19,73134.5,-0.97,-1.75,-1.79,0,*6E
1504483693.45,18721,17.13,73152.0,-0.99,-1.79,-1.75,0,*61
1504483694.64,18722,17.19,73152.0,-0.99,-1.79,-1.79,0,*6E
1504483695.91,18723,17.13,73144.8,-0.97,-1.83,-1.83,0,*61
1504483697.15,18724,17.13,73134.5,-0.99,-1.87,-1.87,0,*68
1504483698.41,18725,17.13,73140.5,-0.97,-1.87,-1.95,0,*64
1504483699.66,18726,17.13,73144.3,-0.99,-1.99,-1.87,0,*65
1504483700.92,18727,17.13,73140.0,-0.97,-1.87,-1.95,0,*66
1504483702.16,18728,17.13,73136.5,-0.99,-1.91,-1.91,0,*64